Tracking 35274 objects as of 11-Sep-2026
HD Live streaming from Space Station
objects crossing your sky now

STARLINK-5836

Track STARLINK-5836 now!
10-day predictions
STARLINK-5836 is classified as:


NORAD ID: 56386
Int'l Code: 2023-061N
Launch date: May 4, 2023
Source: United States (US)
Launch site: AIR FORCE EASTERN TEST RANGE (AFETR)
Your satellite tracking list
Your tracking list is empty




NASA's NSSDC Master Catalog

Two Line Element Set (TLE):
1 56386U 23061N   26253.97473944  .00000849  00000-0  40349-4 0  9990
2 56386  43.0019 231.7570 0000717 275.8125  84.2645 15.27579584185081
Source of the keplerian elements: AFSPC